#datetime,building,power
2023-01-17T00:00:00,mcc,42.59
2023-01-17T00:01:00,mcc,31.24
2023-01-17T00:02:00,mcc,34.77
2023-01-17T00:03:00,mcc,33.24
2023-01-17T00:04:00,mcc,34.60
2023-01-17T00:05:00,mcc,32.79
2023-01-17T00:06:00,mcc,32.14
2023-01-17T00:07:00,mcc,32.77
2023-01-17T00:08:00,mcc,33.93
2023-01-17T00:09:00,mcc,33.84
2023-01-17T00:10:00,mcc,33.72
2023-01-17T00:11:00,mcc,32.66
2023-01-17T00:12:00,mcc,32.68
2023-01-17T00:13:00,mcc,33.17
2023-01-17T00:14:00,mcc,35.11
2023-01-17T00:15:00,mcc,34.75
2023-01-17T00:16:00,mcc,35.19
2023-01-17T00:17:00,mcc,34.35
2023-01-17T00:18:00,mcc,32.36
2023-01-17T00:19:00,mcc,32.67
2023-01-17T00:20:00,mcc,41.90
2023-01-17T00:21:00,mcc,32.35
2023-01-17T00:22:00,mcc,32.16
2023-01-17T00:23:00,mcc,32.47
2023-01-17T00:24:00,mcc,32.40
2023-01-17T00:25:00,mcc,31.50
2023-01-17T00:26:00,mcc,35.20
2023-01-17T00:27:00,mcc,33.93
2023-01-17T00:28:00,mcc,34.09
2023-01-17T00:29:00,mcc,32.37
2023-01-17T00:30:00,mcc,31.54
2023-01-17T00:31:00,mcc,31.59
2023-01-17T00:32:00,mcc,36.46
2023-01-17T00:33:00,mcc,48.72
2023-01-17T00:34:00,mcc,45.88
2023-01-17T00:35:00,mcc,43.21
2023-01-17T00:36:00,mcc,35.51
2023-01-17T00:37:00,mcc,35.47
2023-01-17T00:38:00,mcc,36.94
2023-01-17T00:39:00,mcc,36.20
2023-01-17T00:40:00,mcc,36.65
2023-01-17T00:41:00,mcc,35.29
2023-01-17T00:42:00,mcc,36.13
2023-01-17T00:43:00,mcc,35.36
2023-01-17T00:44:00,mcc,34.44
2023-01-17T00:45:00,mcc,34.39
2023-01-17T00:46:00,mcc,35.35
2023-01-17T00:47:00,mcc,36.21
2023-01-17T00:48:00,mcc,32.51
2023-01-17T00:49:00,mcc,31.81
2023-01-17T00:50:00,mcc,34.47
2023-01-17T00:51:00,mcc,32.69
2023-01-17T00:52:00,mcc,33.35
2023-01-17T00:53:00,mcc,33.52
2023-01-17T00:54:00,mcc,31.41
2023-01-17T00:55:00,mcc,31.26
2023-01-17T00:56:00,mcc,32.23
2023-01-17T00:57:00,mcc,34.54
2023-01-17T00:58:00,mcc,35.11
2023-01-17T00:59:00,mcc,42.53
2023-01-17T01:00:00,mcc,36.61
2023-01-17T01:01:00,mcc,36.39
2023-01-17T01:02:00,mcc,37.34
2023-01-17T01:03:00,mcc,36.51
2023-01-17T01:04:00,mcc,35.15
2023-01-17T01:05:00,mcc,33.92
2023-01-17T01:06:00,mcc,32.64
2023-01-17T01:07:00,mcc,34.46
2023-01-17T01:08:00,mcc,33.97
2023-01-17T01:09:00,mcc,33.71
2023-01-17T01:10:00,mcc,34.16
2023-01-17T01:11:00,mcc,33.86
2023-01-17T01:12:00,mcc,33.37
2023-01-17T01:13:00,mcc,32.71
2023-01-17T01:14:00,mcc,36.63
2023-01-17T01:15:00,mcc,33.92
2023-01-17T01:16:00,mcc,34.37
2023-01-17T01:17:00,mcc,37.75
2023-01-17T01:18:00,mcc,36.01
2023-01-17T01:19:00,mcc,37.46
2023-01-17T01:20:00,mcc,39.57
2023-01-17T01:21:00,mcc,36.28
2023-01-17T01:22:00,mcc,34.36
2023-01-17T01:23:00,mcc,33.72
2023-01-17T01:24:00,mcc,35.82
2023-01-17T01:25:00,mcc,31.19
2023-01-17T01:26:00,mcc,31.33
2023-01-17T01:27:00,mcc,30.74
2023-01-17T01:28:00,mcc,30.23
2023-01-17T01:29:00,mcc,31.27
2023-01-17T01:30:00,mcc,31.03
2023-01-17T01:31:00,mcc,33.38
2023-01-17T01:32:00,mcc,30.27
2023-01-17T01:33:00,mcc,30.60
2023-01-17T01:34:00,mcc,33.00
2023-01-17T01:35:00,mcc,29.23
2023-01-17T01:36:00,mcc,31.44
2023-01-17T01:37:00,mcc,31.57
2023-01-17T01:38:00,mcc,40.34
2023-01-17T01:39:00,mcc,31.07
2023-01-17T01:40:00,mcc,30.16
2023-01-17T01:41:00,mcc,33.61
2023-01-17T01:42:00,mcc,30.43
2023-01-17T01:43:00,mcc,30.78
2023-01-17T01:44:00,mcc,32.48
2023-01-17T01:45:00,mcc,30.09
2023-01-17T01:46:00,mcc,29.85
2023-01-17T01:47:00,mcc,30.38
2023-01-17T01:48:00,mcc,32.12
2023-01-17T01:49:00,mcc,31.94
2023-01-17T01:50:00,mcc,33.18
2023-01-17T01:51:00,mcc,35.70
2023-01-17T01:52:00,mcc,33.70
2023-01-17T01:53:00,mcc,33.30
2023-01-17T01:54:00,mcc,32.80
2023-01-17T01:55:00,mcc,33.74
2023-01-17T01:56:00,mcc,32.12
2023-01-17T01:57:00,mcc,30.78
2023-01-17T01:58:00,mcc,40.80
2023-01-17T01:59:00,mcc,31.10
2023-01-17T02:00:00,mcc,31.99
2023-01-17T02:01:00,mcc,35.30
2023-01-17T02:02:00,mcc,34.35
2023-01-17T02:03:00,mcc,34.30
2023-01-17T02:04:00,mcc,37.44
2023-01-17T02:05:00,mcc,35.62
2023-01-17T02:06:00,mcc,34.48
2023-01-17T02:07:00,mcc,33.19
2023-01-17T02:08:00,mcc,32.36
2023-01-17T02:09:00,mcc,33.15
2023-01-17T02:10:00,mcc,32.25
2023-01-17T02:11:00,mcc,36.57
2023-01-17T02:12:00,mcc,33.59
2023-01-17T02:13:00,mcc,31.88
2023-01-17T02:14:00,mcc,31.23
2023-01-17T02:15:00,mcc,31.63
2023-01-17T02:16:00,mcc,32.81
2023-01-17T02:17:00,mcc,31.56
2023-01-17T02:18:00,mcc,33.32
2023-01-17T02:19:00,mcc,32.71
2023-01-17T02:20:00,mcc,34.66
2023-01-17T02:21:00,mcc,37.26
2023-01-17T02:22:00,mcc,34.97
2023-01-17T02:23:00,mcc,37.03
2023-01-17T02:24:00,mcc,35.66
2023-01-17T02:25:00,mcc,35.71
2023-01-17T02:26:00,mcc,34.79
2023-01-17T02:27:00,mcc,34.00
2023-01-17T02:28:00,mcc,36.42
2023-01-17T02:29:00,mcc,33.87
2023-01-17T02:30:00,mcc,34.94
2023-01-17T02:31:00,mcc,37.63
2023-01-17T02:32:00,mcc,35.18
2023-01-17T02:33:00,mcc,34.51
2023-01-17T02:34:00,mcc,33.95
2023-01-17T02:35:00,mcc,34.48
2023-01-17T02:36:00,mcc,32.46
2023-01-17T02:37:00,mcc,40.22
2023-01-17T02:38:00,mcc,34.24
2023-01-17T02:39:00,mcc,33.20
2023-01-17T02:40:00,mcc,39.30
2023-01-17T02:41:00,mcc,38.64
2023-01-17T02:42:00,mcc,38.22
2023-01-17T02:43:00,mcc,36.75
2023-01-17T02:44:00,mcc,39.13
2023-01-17T02:45:00,mcc,33.29
2023-01-17T02:46:00,mcc,33.09
2023-01-17T02:47:00,mcc,33.37
2023-01-17T02:48:00,mcc,36.44
2023-01-17T02:49:00,mcc,34.22
2023-01-17T02:50:00,mcc,31.35
2023-01-17T02:51:00,mcc,31.08
2023-01-17T02:52:00,mcc,37.44
2023-01-17T02:53:00,mcc,35.97
2023-01-17T02:54:00,mcc,34.54
2023-01-17T02:55:00,mcc,36.47
2023-01-17T02:56:00,mcc,42.12
2023-01-17T02:57:00,mcc,32.37
2023-01-17T02:58:00,mcc,34.86
2023-01-17T02:59:00,mcc,35.14
2023-01-17T03:00:00,mcc,33.88
2023-01-17T03:01:00,mcc,34.02
2023-01-17T03:02:00,mcc,35.23
2023-01-17T03:03:00,mcc,34.02
2023-01-17T03:04:00,mcc,34.18
2023-01-17T03:05:00,mcc,40.40
2023-01-17T03:06:00,mcc,37.43
2023-01-17T03:07:00,mcc,37.71
2023-01-17T03:08:00,mcc,37.53
2023-01-17T03:09:00,mcc,37.97
2023-01-17T03:10:00,mcc,34.90
2023-01-17T03:11:00,mcc,34.14
2023-01-17T03:12:00,mcc,38.02
2023-01-17T03:13:00,mcc,34.00
2023-01-17T03:14:00,mcc,33.78
2023-01-17T03:15:00,mcc,33.00
2023-01-17T03:16:00,mcc,39.75
2023-01-17T03:17:00,mcc,31.69
2023-01-17T03:18:00,mcc,32.16
2023-01-17T03:19:00,mcc,32.88
2023-01-17T03:20:00,mcc,31.03
2023-01-17T03:21:00,mcc,31.22
2023-01-17T03:22:00,mcc,34.24
2023-01-17T03:23:00,mcc,32.18
2023-01-17T03:24:00,mcc,34.41
2023-01-17T03:25:00,mcc,34.93
2023-01-17T03:26:00,mcc,35.14
2023-01-17T03:27:00,mcc,35.36
2023-01-17T03:28:00,mcc,34.34
2023-01-17T03:29:00,mcc,37.72
2023-01-17T03:30:00,mcc,34.34
2023-01-17T03:31:00,mcc,34.16
2023-01-17T03:32:00,mcc,33.64
2023-01-17T03:33:00,mcc,31.38
2023-01-17T03:34:00,mcc,31.32
2023-01-17T03:35:00,mcc,33.74
2023-01-17T03:36:00,mcc,33.02
2023-01-17T03:37:00,mcc,33.82
2023-01-17T03:38:00,mcc,32.65
2023-01-17T03:39:00,mcc,33.43
2023-01-17T03:40:00,mcc,31.63
2023-01-17T03:41:00,mcc,32.81
2023-01-17T03:42:00,mcc,34.62
2023-01-17T03:43:00,mcc,36.95
2023-01-17T03:44:00,mcc,35.65
2023-01-17T03:45:00,mcc,34.05
2023-01-17T03:46:00,mcc,35.13
2023-01-17T03:47:00,mcc,34.60
2023-01-17T03:48:00,mcc,33.81
2023-01-17T03:49:00,mcc,34.28
2023-01-17T03:50:00,mcc,32.45
2023-01-17T03:51:00,mcc,31.25
2023-01-17T03:52:00,mcc,31.45
2023-01-17T03:53:00,mcc,33.10
2023-01-17T03:54:00,mcc,32.71
2023-01-17T03:55:00,mcc,33.73
2023-01-17T03:56:00,mcc,36.18
2023-01-17T03:57:00,mcc,33.41
2023-01-17T03:58:00,mcc,33.62
2023-01-17T03:59:00,mcc,34.45
2023-01-17T04:00:00,mcc,34.02
2023-01-17T04:01:00,mcc,34.12
2023-01-17T04:02:00,mcc,34.98
2023-01-17T04:03:00,mcc,33.88
2023-01-17T04:04:00,mcc,32.33
2023-01-17T04:05:00,mcc,31.31
2023-01-17T04:06:00,mcc,33.10
2023-01-17T04:07:00,mcc,29.77
2023-01-17T04:08:00,mcc,31.31
2023-01-17T04:09:00,mcc,33.02
2023-01-17T04:10:00,mcc,32.22
2023-01-17T04:11:00,mcc,31.60
2023-01-17T04:12:00,mcc,32.80
2023-01-17T04:13:00,mcc,40.33
2023-01-17T04:14:00,mcc,33.44
2023-01-17T04:15:00,mcc,31.95
2023-01-17T04:16:00,mcc,32.39
2023-01-17T04:17:00,mcc,32.52
2023-01-17T04:18:00,mcc,31.79
2023-01-17T04:19:00,mcc,33.09
2023-01-17T04:20:00,mcc,35.81
2023-01-17T04:21:00,mcc,33.02
2023-01-17T04:22:00,mcc,35.74
2023-01-17T04:23:00,mcc,33.18
2023-01-17T04:24:00,mcc,34.45
2023-01-17T04:25:00,mcc,35.57
2023-01-17T04:26:00,mcc,34.45
2023-01-17T04:27:00,mcc,35.60
2023-01-17T04:28:00,mcc,33.09
2023-01-17T04:29:00,mcc,44.06
2023-01-17T04:30:00,mcc,49.01
2023-01-17T04:31:00,mcc,54.38
2023-01-17T04:32:00,mcc,42.14
2023-01-17T04:33:00,mcc,38.92
2023-01-17T04:34:00,mcc,38.99
2023-01-17T04:35:00,mcc,36.31
2023-01-17T04:36:00,mcc,33.80
2023-01-17T04:37:00,mcc,35.47
2023-01-17T04:38:00,mcc,34.52
2023-01-17T04:39:00,mcc,30.94
2023-01-17T04:40:00,mcc,31.78
2023-01-17T04:41:00,mcc,29.63
2023-01-17T04:42:00,mcc,32.90
2023-01-17T04:43:00,mcc,32.51
2023-01-17T04:44:00,mcc,33.94
2023-01-17T04:45:00,mcc,32.15
2023-01-17T04:46:00,mcc,32.82
2023-01-17T04:47:00,mcc,35.62
2023-01-17T04:48:00,mcc,32.79
2023-01-17T04:49:00,mcc,34.05
2023-01-17T04:50:00,mcc,33.98
2023-01-17T04:51:00,mcc,33.51
2023-01-17T04:52:00,mcc,36.21
2023-01-17T04:53:00,mcc,38.55
2023-01-17T04:54:00,mcc,39.18
2023-01-17T04:55:00,mcc,36.00
2023-01-17T04:56:00,mcc,34.48
2023-01-17T04:57:00,mcc,36.26
2023-01-17T04:58:00,mcc,32.10
2023-01-17T04:59:00,mcc,31.38
2023-01-17T05:00:00,mcc,31.94
2023-01-17T05:01:00,mcc,32.70
2023-01-17T05:02:00,mcc,34.18
2023-01-17T05:03:00,mcc,35.20
2023-01-17T05:04:00,mcc,36.46
2023-01-17T05:05:00,mcc,34.49
2023-01-17T05:06:00,mcc,32.67
2023-01-17T05:07:00,mcc,34.60
2023-01-17T05:08:00,mcc,33.11
2023-01-17T05:09:00,mcc,39.53
2023-01-17T05:10:00,mcc,32.43
2023-01-17T05:11:00,mcc,32.33
2023-01-17T05:12:00,mcc,31.63
2023-01-17T05:13:00,mcc,35.74
2023-01-17T05:14:00,mcc,34.06
2023-01-17T05:15:00,mcc,33.28
2023-01-17T05:16:00,mcc,32.45
2023-01-17T05:17:00,mcc,33.67
2023-01-17T05:18:00,mcc,31.39
2023-01-17T05:19:00,mcc,30.40
2023-01-17T05:20:00,mcc,29.87
2023-01-17T05:21:00,mcc,30.78
2023-01-17T05:22:00,mcc,29.87
2023-01-17T05:23:00,mcc,31.71
2023-01-17T05:24:00,mcc,34.97
2023-01-17T05:25:00,mcc,34.39
2023-01-17T05:26:00,mcc,33.97
2023-01-17T05:27:00,mcc,34.76
2023-01-17T05:28:00,mcc,39.66
2023-01-17T05:29:00,mcc,31.28
2023-01-17T05:30:00,mcc,33.07
2023-01-17T05:31:00,mcc,34.64
2023-01-17T05:32:00,mcc,36.86
2023-01-17T05:33:00,mcc,35.22
2023-01-17T05:34:00,mcc,35.60
2023-01-17T05:35:00,mcc,34.85
2023-01-17T05:36:00,mcc,34.18
2023-01-17T05:37:00,mcc,37.53
2023-01-17T05:38:00,mcc,34.85
2023-01-17T05:39:00,mcc,34.40
2023-01-17T05:40:00,mcc,34.13
2023-01-17T05:41:00,mcc,31.70
2023-01-17T05:42:00,mcc,31.37
2023-01-17T05:43:00,mcc,37.49
2023-01-17T05:44:00,mcc,35.03
2023-01-17T05:45:00,mcc,33.48
2023-01-17T05:46:00,mcc,31.30
2023-01-17T05:47:00,mcc,38.53
2023-01-17T05:48:00,mcc,30.06
2023-01-17T05:49:00,mcc,30.76
2023-01-17T05:50:00,mcc,35.29
2023-01-17T05:51:00,mcc,33.09
2023-01-17T05:52:00,mcc,32.41
2023-01-17T05:53:00,mcc,31.82
2023-01-17T05:54:00,mcc,33.17
2023-01-17T05:55:00,mcc,31.63
2023-01-17T05:56:00,mcc,36.13
2023-01-17T05:57:00,mcc,35.42
2023-01-17T05:58:00,mcc,36.48
2023-01-17T05:59:00,mcc,34.39
2023-01-17T06:00:00,mcc,37.05
2023-01-17T06:01:00,mcc,32.19
2023-01-17T06:02:00,mcc,33.89
2023-01-17T06:03:00,mcc,35.90
2023-01-17T06:04:00,mcc,33.59
2023-01-17T06:05:00,mcc,33.25
2023-01-17T06:06:00,mcc,34.48
2023-01-17T06:07:00,mcc,41.43
2023-01-17T06:08:00,mcc,33.27
2023-01-17T06:09:00,mcc,34.01
2023-01-17T06:10:00,mcc,37.06
2023-01-17T06:11:00,mcc,31.64
2023-01-17T06:12:00,mcc,31.76
2023-01-17T06:13:00,mcc,34.91
2023-01-17T06:14:00,mcc,35.16
2023-01-17T06:15:00,mcc,35.73
2023-01-17T06:16:00,mcc,34.92
2023-01-17T06:17:00,mcc,37.31
2023-01-17T06:18:00,mcc,35.09
2023-01-17T06:19:00,mcc,37.57
2023-01-17T06:20:00,mcc,42.58
2023-01-17T06:21:00,mcc,40.03
2023-01-17T06:22:00,mcc,37.64
2023-01-17T06:23:00,mcc,35.71
2023-01-17T06:24:00,mcc,34.90
2023-01-17T06:25:00,mcc,42.57
2023-01-17T06:26:00,mcc,46.10
2023-01-17T06:27:00,mcc,45.58
2023-01-17T06:28:00,mcc,48.26
2023-01-17T06:29:00,mcc,40.30
2023-01-17T06:30:00,mcc,39.81
2023-01-17T06:31:00,mcc,37.71
2023-01-17T06:32:00,mcc,36.75
2023-01-17T06:33:00,mcc,34.07
2023-01-17T06:34:00,mcc,33.96
2023-01-17T06:35:00,mcc,38.89
2023-01-17T06:36:00,mcc,55.86
2023-01-17T06:37:00,mcc,54.15
2023-01-17T06:38:00,mcc,56.22
2023-01-17T06:39:00,mcc,55.37
2023-01-17T06:40:00,mcc,51.71
2023-01-17T06:41:00,mcc,51.39
2023-01-17T06:42:00,mcc,52.17
2023-01-17T06:43:00,mcc,54.69
2023-01-17T06:44:00,mcc,51.96
2023-01-17T06:45:00,mcc,54.89
2023-01-17T06:46:00,mcc,57.37
2023-01-17T06:47:00,mcc,60.19
2023-01-17T06:48:00,mcc,58.10
2023-01-17T06:49:00,mcc,59.17
2023-01-17T06:50:00,mcc,53.60
2023-01-17T06:51:00,mcc,50.79
2023-01-17T06:52:00,mcc,42.89
2023-01-17T06:53:00,mcc,42.11
2023-01-17T06:54:00,mcc,54.54
2023-01-17T06:55:00,mcc,55.69
2023-01-17T06:56:00,mcc,56.84
2023-01-17T06:57:00,mcc,56.71
2023-01-17T06:58:00,mcc,54.95
2023-01-17T06:59:00,mcc,56.66
2023-01-17T07:00:00,mcc,54.09
2023-01-17T07:01:00,mcc,56.19
2023-01-17T07:02:00,mcc,59.26
2023-01-17T07:03:00,mcc,56.42
2023-01-17T07:04:00,mcc,56.52
2023-01-17T07:05:00,mcc,62.92
2023-01-17T07:06:00,mcc,46.35
2023-01-17T07:07:00,mcc,45.97
2023-01-17T07:08:00,mcc,45.05
2023-01-17T07:09:00,mcc,43.57
2023-01-17T07:10:00,mcc,47.04
2023-01-17T07:11:00,mcc,48.23
2023-01-17T07:12:00,mcc,50.52
2023-01-17T07:13:00,mcc,49.96
2023-01-17T07:14:00,mcc,56.09
2023-01-17T07:15:00,mcc,46.33
2023-01-17T07:16:00,mcc,43.31
2023-01-17T07:17:00,mcc,51.74
2023-01-17T07:18:00,mcc,59.65
2023-01-17T07:19:00,mcc,54.80
2023-01-17T07:20:00,mcc,56.34
2023-01-17T07:21:00,mcc,55.19
2023-01-17T07:22:00,mcc,56.76
2023-01-17T07:23:00,mcc,57.11
2023-01-17T07:24:00,mcc,56.13
2023-01-17T07:25:00,mcc,47.57
2023-01-17T07:26:00,mcc,52.60
2023-01-17T07:27:00,mcc,54.17
2023-01-17T07:28:00,mcc,61.33
2023-01-17T07:29:00,mcc,59.28
2023-01-17T07:30:00,mcc,57.16
2023-01-17T07:31:00,mcc,61.21
2023-01-17T07:32:00,mcc,52.02
2023-01-17T07:33:00,mcc,52.87
2023-01-17T07:34:00,mcc,54.56
2023-01-17T07:35:00,mcc,49.83
2023-01-17T07:36:00,mcc,49.25
2023-01-17T07:37:00,mcc,52.14
2023-01-17T07:38:00,mcc,52.03
2023-01-17T07:39:00,mcc,61.98
2023-01-17T07:40:00,mcc,52.41
2023-01-17T07:41:00,mcc,54.29
2023-01-17T07:42:00,mcc,63.16
2023-01-17T07:43:00,mcc,54.90
2023-01-17T07:44:00,mcc,66.59
2023-01-17T07:45:00,mcc,61.20
2023-01-17T07:46:00,mcc,53.95
2023-01-17T07:47:00,mcc,71.74
2023-01-17T07:48:00,mcc,54.93
2023-01-17T07:49:00,mcc,51.56
2023-01-17T07:50:00,mcc,58.50
2023-01-17T07:51:00,mcc,54.03
2023-01-17T07:52:00,mcc,54.28
2023-01-17T07:53:00,mcc,61.78
2023-01-17T07:54:00,mcc,54.61
2023-01-17T07:55:00,mcc,53.71
2023-01-17T07:56:00,mcc,51.51
2023-01-17T07:57:00,mcc,52.56
2023-01-17T07:58:00,mcc,52.56
2023-01-17T07:59:00,mcc,54.09
2023-01-17T08:00:00,mcc,55.19
2023-01-17T08:01:00,mcc,63.48
2023-01-17T08:02:00,mcc,53.99
2023-01-17T08:03:00,mcc,53.54
2023-01-17T08:04:00,mcc,58.42
2023-01-17T08:05:00,mcc,50.54
2023-01-17T08:06:00,mcc,57.34
2023-01-17T08:07:00,mcc,56.33
2023-01-17T08:08:00,mcc,56.38
2023-01-17T08:09:00,mcc,58.45
2023-01-17T08:10:00,mcc,65.98
2023-01-17T08:11:00,mcc,74.10
2023-01-17T08:12:00,mcc,58.17
2023-01-17T08:13:00,mcc,59.12
2023-01-17T08:14:00,mcc,54.03
2023-01-17T08:15:00,mcc,53.01
2023-01-17T08:16:00,mcc,54.54
2023-01-17T08:17:00,mcc,53.56
2023-01-17T08:18:00,mcc,78.92
2023-01-17T08:19:00,mcc,57.87
2023-01-17T08:20:00,mcc,72.63
2023-01-17T08:21:00,mcc,55.82
2023-01-17T08:22:00,mcc,53.94
2023-01-17T08:23:00,mcc,57.84
2023-01-17T08:24:00,mcc,65.18
2023-01-17T08:25:00,mcc,55.52
2023-01-17T08:26:00,mcc,58.15
2023-01-17T08:27:00,mcc,58.31
2023-01-17T08:28:00,mcc,56.11
2023-01-17T08:29:00,mcc,68.44
2023-01-17T08:30:00,mcc,63.10
2023-01-17T08:31:00,mcc,58.20
2023-01-17T08:32:00,mcc,56.87
2023-01-17T08:33:00,mcc,58.89
2023-01-17T08:34:00,mcc,57.88
2023-01-17T08:35:00,mcc,55.32
2023-01-17T08:36:00,mcc,57.47
2023-01-17T08:37:00,mcc,56.03
2023-01-17T08:38:00,mcc,58.75
2023-01-17T08:39:00,mcc,60.76
2023-01-17T08:40:00,mcc,59.22
2023-01-17T08:41:00,mcc,58.72
2023-01-17T08:42:00,mcc,63.39
2023-01-17T08:43:00,mcc,70.09
2023-01-17T08:44:00,mcc,68.54
2023-01-17T08:45:00,mcc,57.87
2023-01-17T08:46:00,mcc,60.41
2023-01-17T08:47:00,mcc,82.42
2023-01-17T08:48:00,mcc,58.85
2023-01-17T08:49:00,mcc,59.99
2023-01-17T08:50:00,mcc,75.30
2023-01-17T08:51:00,mcc,68.88
2023-01-17T08:52:00,mcc,73.41
2023-01-17T08:53:00,mcc,68.17
2023-01-17T08:54:00,mcc,60.54
2023-01-17T08:55:00,mcc,64.61
2023-01-17T08:56:00,mcc,62.20
2023-01-17T08:57:00,mcc,70.31
2023-01-17T08:58:00,mcc,72.18
2023-01-17T08:59:00,mcc,61.15
2023-01-17T09:00:00,mcc,61.06
2023-01-17T09:01:00,mcc,64.41
2023-01-17T09:02:00,mcc,63.34
2023-01-17T09:03:00,mcc,82.54
2023-01-17T09:04:00,mcc,73.80
2023-01-17T09:05:00,mcc,76.73
2023-01-17T09:06:00,mcc,64.30
2023-01-17T09:07:00,mcc,59.49
2023-01-17T09:08:00,mcc,58.92
2023-01-17T09:09:00,mcc,70.77
2023-01-17T09:10:00,mcc,66.57
2023-01-17T09:11:00,mcc,52.50
2023-01-17T09:12:00,mcc,53.25
2023-01-17T09:13:00,mcc,51.19
2023-01-17T09:14:00,mcc,57.58
2023-01-17T09:15:00,mcc,53.87
2023-01-17T09:16:00,mcc,63.04
2023-01-17T09:17:00,mcc,55.54
2023-01-17T09:18:00,mcc,52.40
2023-01-17T09:19:00,mcc,54.44
2023-01-17T09:20:00,mcc,56.80
2023-01-17T09:21:00,mcc,79.82
2023-01-17T09:22:00,mcc,59.45
2023-01-17T09:23:00,mcc,62.16
2023-01-17T09:24:00,mcc,59.77
2023-01-17T09:25:00,mcc,57.53
2023-01-17T09:26:00,mcc,62.72
2023-01-17T09:27:00,mcc,69.75
2023-01-17T09:28:00,mcc,60.43
2023-01-17T09:29:00,mcc,61.12
2023-01-17T09:30:00,mcc,60.52
2023-01-17T09:31:00,mcc,57.75
2023-01-17T09:32:00,mcc,56.65
2023-01-17T09:33:00,mcc,54.87
2023-01-17T09:34:00,mcc,59.66
2023-01-17T09:35:00,mcc,56.30
2023-01-17T09:36:00,mcc,56.03
2023-01-17T09:37:00,mcc,55.14
2023-01-17T09:38:00,mcc,56.05
2023-01-17T09:39:00,mcc,63.94
2023-01-17T09:40:00,mcc,57.74
2023-01-17T09:41:00,mcc,56.84
2023-01-17T09:42:00,mcc,55.16
2023-01-17T09:43:00,mcc,54.28
2023-01-17T09:44:00,mcc,63.23
2023-01-17T09:45:00,mcc,55.35
2023-01-17T09:46:00,mcc,55.09
2023-01-17T09:47:00,mcc,57.40
2023-01-17T09:48:00,mcc,51.92
2023-01-17T09:49:00,mcc,54.11
2023-01-17T09:50:00,mcc,63.00
2023-01-17T09:51:00,mcc,52.42
2023-01-17T09:52:00,mcc,54.50
2023-01-17T09:53:00,mcc,61.55
2023-01-17T09:54:00,mcc,53.41
2023-01-17T09:55:00,mcc,55.68
2023-01-17T09:56:00,mcc,49.69
2023-01-17T09:57:00,mcc,53.55
2023-01-17T09:58:00,mcc,61.64
2023-01-17T09:59:00,mcc,61.36
2023-01-17T10:00:00,mcc,64.31
2023-01-17T10:01:00,mcc,69.40
2023-01-17T10:02:00,mcc,56.21
2023-01-17T10:03:00,mcc,57.06
2023-01-17T10:04:00,mcc,55.77
2023-01-17T10:05:00,mcc,58.81
2023-01-17T10:06:00,mcc,55.97
2023-01-17T10:07:00,mcc,59.24
2023-01-17T10:08:00,mcc,51.11
2023-01-17T10:09:00,mcc,54.08
2023-01-17T10:10:00,mcc,54.40
2023-01-17T10:11:00,mcc,52.92
2023-01-17T10:12:00,mcc,54.69
2023-01-17T10:13:00,mcc,64.63
2023-01-17T10:14:00,mcc,56.92
2023-01-17T10:15:00,mcc,71.32
2023-01-17T10:16:00,mcc,57.16
2023-01-17T10:17:00,mcc,57.29
2023-01-17T10:18:00,mcc,55.68
2023-01-17T10:19:00,mcc,59.13
2023-01-17T10:20:00,mcc,58.64
2023-01-17T10:21:00,mcc,53.13
2023-01-17T10:22:00,mcc,54.56
2023-01-17T10:23:00,mcc,55.75
2023-01-17T10:24:00,mcc,64.47
2023-01-17T10:25:00,mcc,52.66
2023-01-17T10:26:00,mcc,55.04
2023-01-17T10:27:00,mcc,53.54
2023-01-17T10:28:00,mcc,49.85
2023-01-17T10:29:00,mcc,53.24
2023-01-17T10:30:00,mcc,86.00
2023-01-17T10:31:00,mcc,54.37
2023-01-17T10:32:00,mcc,63.60
2023-01-17T10:33:00,mcc,54.54
2023-01-17T10:34:00,mcc,50.21
2023-01-17T10:35:00,mcc,53.29
2023-01-17T10:36:00,mcc,54.58
2023-01-17T10:37:00,mcc,55.33
2023-01-17T10:38:00,mcc,63.82
2023-01-17T10:39:00,mcc,53.51
2023-01-17T10:40:00,mcc,54.05
2023-01-17T10:41:00,mcc,58.10
2023-01-17T10:42:00,mcc,68.87
2023-01-17T10:43:00,mcc,56.88
2023-01-17T10:44:00,mcc,59.78
2023-01-17T10:45:00,mcc,57.50
2023-01-17T10:46:00,mcc,55.22
2023-01-17T10:47:00,mcc,54.75
2023-01-17T10:48:00,mcc,63.32
2023-01-17T10:49:00,mcc,64.48
2023-01-17T10:50:00,mcc,55.61
2023-01-17T10:51:00,mcc,54.67
2023-01-17T10:52:00,mcc,57.81
2023-01-17T10:53:00,mcc,53.18
2023-01-17T10:54:00,mcc,54.77
2023-01-17T10:55:00,mcc,54.48
2023-01-17T10:56:00,mcc,53.44
2023-01-17T10:57:00,mcc,52.16
2023-01-17T10:58:00,mcc,53.75
2023-01-17T10:59:00,mcc,61.21
2023-01-17T11:00:00,mcc,57.02
2023-01-17T11:01:00,mcc,54.08
2023-01-17T11:02:00,mcc,58.22
2023-01-17T11:03:00,mcc,54.40
2023-01-17T11:04:00,mcc,52.73
2023-01-17T11:05:00,mcc,54.08
2023-01-17T11:06:00,mcc,53.98
2023-01-17T11:07:00,mcc,64.67
2023-01-17T11:08:00,mcc,51.20
2023-01-17T11:09:00,mcc,53.74
2023-01-17T11:10:00,mcc,67.63
2023-01-17T11:11:00,mcc,75.06
2023-01-17T11:12:00,mcc,52.69
2023-01-17T11:13:00,mcc,55.91
2023-01-17T11:14:00,mcc,54.59
2023-01-17T11:15:00,mcc,51.31
2023-01-17T11:16:00,mcc,75.93
2023-01-17T11:17:00,mcc,57.58
2023-01-17T11:18:00,mcc,57.57
2023-01-17T11:19:00,mcc,61.45
2023-01-17T11:20:00,mcc,54.65
2023-01-17T11:21:00,mcc,59.21
2023-01-17T11:22:00,mcc,56.60
2023-01-17T11:23:00,mcc,53.99
2023-01-17T11:24:00,mcc,66.48
2023-01-17T11:25:00,mcc,60.93
2023-01-17T11:26:00,mcc,59.15
2023-01-17T11:27:00,mcc,63.05
2023-01-17T11:28:00,mcc,61.14
2023-01-17T11:29:00,mcc,59.04
2023-01-17T11:30:00,mcc,54.17
2023-01-17T11:31:00,mcc,52.80
2023-01-17T11:32:00,mcc,56.95
2023-01-17T11:33:00,mcc,61.92
2023-01-17T11:34:00,mcc,53.35
2023-01-17T11:35:00,mcc,53.73
2023-01-17T11:36:00,mcc,53.27
2023-01-17T11:37:00,mcc,50.95
2023-01-17T11:38:00,mcc,54.98
2023-01-17T11:39:00,mcc,52.22
2023-01-17T11:40:00,mcc,52.99
2023-01-17T11:41:00,mcc,72.62
2023-01-17T11:42:00,mcc,55.88
2023-01-17T11:43:00,mcc,55.74
2023-01-17T11:44:00,mcc,58.15
2023-01-17T11:45:00,mcc,74.40
2023-01-17T11:46:00,mcc,55.95
2023-01-17T11:47:00,mcc,65.24
2023-01-17T11:48:00,mcc,59.85
2023-01-17T11:49:00,mcc,60.66
2023-01-17T11:50:00,mcc,57.59
2023-01-17T11:51:00,mcc,72.14
2023-01-17T11:52:00,mcc,58.95
2023-01-17T11:53:00,mcc,69.65
2023-01-17T11:54:00,mcc,57.78
2023-01-17T11:55:00,mcc,59.81
2023-01-17T11:56:00,mcc,60.56
2023-01-17T11:57:00,mcc,58.19
2023-01-17T11:58:00,mcc,55.54
2023-01-17T11:59:00,mcc,64.76
2023-01-17T12:00:00,mcc,58.85
2023-01-17T12:01:00,mcc,55.18
2023-01-17T12:02:00,mcc,63.03
2023-01-17T12:03:00,mcc,57.92
2023-01-17T12:04:00,mcc,65.33
2023-01-17T12:05:00,mcc,53.99
2023-01-17T12:06:00,mcc,54.49
2023-01-17T12:07:00,mcc,54.70
2023-01-17T12:08:00,mcc,51.31
2023-01-17T12:09:00,mcc,52.99
2023-01-17T12:10:00,mcc,55.91
2023-01-17T12:11:00,mcc,65.40
2023-01-17T12:12:00,mcc,59.56
2023-01-17T12:13:00,mcc,59.40
2023-01-17T12:14:00,mcc,57.12
2023-01-17T12:15:00,mcc,57.18
2023-01-17T12:16:00,mcc,68.38
2023-01-17T12:17:00,mcc,54.66
2023-01-17T12:18:00,mcc,55.95
2023-01-17T12:19:00,mcc,53.03
2023-01-17T12:20:00,mcc,51.88
2023-01-17T12:21:00,mcc,55.01
2023-01-17T12:22:00,mcc,60.12
2023-01-17T12:23:00,mcc,51.64
2023-01-17T12:24:00,mcc,61.24
2023-01-17T12:25:00,mcc,52.41
2023-01-17T12:26:00,mcc,54.80
2023-01-17T12:27:00,mcc,56.54
2023-01-17T12:28:00,mcc,54.01
2023-01-17T12:29:00,mcc,55.53
2023-01-17T12:30:00,mcc,54.42
2023-01-17T12:31:00,mcc,55.15
2023-01-17T12:32:00,mcc,54.63
2023-01-17T12:33:00,mcc,61.46
2023-01-17T12:34:00,mcc,56.05
2023-01-17T12:35:00,mcc,55.48
2023-01-17T12:36:00,mcc,54.86
2023-01-17T12:37:00,mcc,56.10
2023-01-17T12:38:00,mcc,58.13
2023-01-17T12:39:00,mcc,62.01
2023-01-17T12:40:00,mcc,58.46
2023-01-17T12:41:00,mcc,54.89
2023-01-17T12:42:00,mcc,56.39
2023-01-17T12:43:00,mcc,64.17
2023-01-17T12:44:00,mcc,53.08
2023-01-17T12:45:00,mcc,64.81
2023-01-17T12:46:00,mcc,57.79
2023-01-17T12:47:00,mcc,57.37
2023-01-17T12:48:00,mcc,56.28
2023-01-17T12:49:00,mcc,51.83
2023-01-17T12:50:00,mcc,55.21
2023-01-17T12:51:00,mcc,54.76
2023-01-17T12:52:00,mcc,55.90
2023-01-17T12:53:00,mcc,56.57
2023-01-17T12:54:00,mcc,53.97
2023-01-17T12:55:00,mcc,54.79
2023-01-17T12:56:00,mcc,61.80
2023-01-17T12:57:00,mcc,56.26
2023-01-17T12:58:00,mcc,54.54
2023-01-17T12:59:00,mcc,56.68
2023-01-17T13:00:00,mcc,60.29
2023-01-17T13:01:00,mcc,67.62
2023-01-17T13:02:00,mcc,73.43
2023-01-17T13:03:00,mcc,66.34
2023-01-17T13:04:00,mcc,68.49
2023-01-17T13:05:00,mcc,58.09
2023-01-17T13:06:00,mcc,54.07
2023-01-17T13:07:00,mcc,57.26
2023-01-17T13:08:00,mcc,61.96
2023-01-17T13:09:00,mcc,55.93
2023-01-17T13:10:00,mcc,59.19
2023-01-17T13:11:00,mcc,58.96
2023-01-17T13:12:00,mcc,60.05
2023-01-17T13:13:00,mcc,63.36
2023-01-17T13:14:00,mcc,59.36
2023-01-17T13:15:00,mcc,55.67
2023-01-17T13:16:00,mcc,55.74
2023-01-17T13:17:00,mcc,51.70
2023-01-17T13:18:00,mcc,55.34